EW4565 Weather Reports


Display with metric or nautical units.
time (UTC)temp
F
wind
direction
speed
MPH
gust
MPH
rain 1hr
in
rain 24hr
in
rain mn
in
humidity
%
barometer
mb
20260505213900 72 249 1.0 5.0 0.00 0.00 0.00 26 1012.6
20260505213401 71 169 0.0 4.0 0.00 0.00 0.00 27 1012.8
20260505212902 71 177 1.0 4.0 0.00 0.00 0.00 27 1012.9
20260505212403 71 139 1.0 5.0 0.00 0.00 0.00 27 1012.9
20260505211901 71 152 2.0 5.0 0.00 0.00 0.00 26 1012.9
20260505211401 71 65 2.0 7.0 0.00 0.00 0.00 28 1013.0
20260505210900 71 63 2.0 7.0 0.00 0.00 0.00 26 1013.0
20260505210715 71 133 1.0 4.0 0.00 0.00 0.00 27 1013.0
20260505205905 71 194 1.0 4.0 0.00 0.00 0.00 29 1013.0
20260505205658 71 224 1.0 5.0 0.00 0.00 0.00 29 1013.0
20260505204903 70 248 1.0 5.0 0.00 0.00 0.00 27 1013.2
20260505204406 70 156 1.0 3.0 0.00 0.00 0.00 27 1013.3
20260505203903 70 156 1.0 6.0 0.00 0.00 0.00 28 1013.3
20260505203407 70 154 1.0 6.0 0.00 0.00 0.00 29 1013.3
20260505202904 70 137 1.0 4.0 0.00 0.00 0.00 28 1013.3
20260505202402 70 132 1.0 4.0 0.00 0.00 0.00 28 1013.4
20260505201902 69 132 1.0 6.0 0.00 0.00 0.00 28 1013.5
20260505201402 69 163 1.0 6.0 0.00 0.00 0.00 29 1013.6
20260505201201 68 54 2.0 9.0 0.00 0.00 0.00 28 1013.7
20260505200518 69 39 1.0 5.0 0.00 0.00 0.00 30 1013.7
20260505200453 69 48 2.0 9.0 0.00 0.00 0.00 27 1013.8
20260505195404 69 154 1.0 5.0 0.00 0.00 0.00 30 1013.8
20260505194902 68 136 1.0 6.0 0.00 0.00 0.00 29 1014.0
20260505194702 68 137 2.0 7.0 0.00 0.00 0.00 31 1014.0
20260505193901 67 138 2.0 10.0 0.00 0.00 0.00 30 1013.9
20260505193405 67 271 1.0 10.0 0.00 0.00 0.00 32 1014.0
20260505192906 67 144 1.0 5.0 0.00 0.00 0.00 31 1014.1
20260505192458 67 251 1.0 6.0 0.00 0.00 0.00 31 1014.2
20260505192442 67 148 1.0 6.0 0.00 0.00 0.00 31 1014.1
20260505191405 67 125 1.0 4.0 0.00 0.00 0.00 30 1014.2
20260505190905 67 127 1.0 4.0 0.00 0.00 0.00 32 1014.2
20260505190711 67 77 1.0 5.0 0.00 0.00 0.00 31 1014.3
20260505185905 67 63 1.0 6.0 0.00 0.00 0.00 31 1014.3
20260505185404 67 177 1.0 6.0 0.00 0.00 0.00 30 1014.5
20260505185211 66 147 1.0 4.0 0.00 0.00 0.00 32 1014.6
20260505184404 66 141 1.0 5.0 0.00 0.00 0.00 31 1014.7
20260505183905 66 139 1.0 7.0 0.00 0.00 0.00 31 1014.7
20260505183404 66 143 1.0 7.0 0.00 0.00 0.00 31 1014.7
20260505182907 66 186 1.0 5.0 0.00 0.00 0.00 31 1014.8
20260505182405 65 128 1.0 5.0 0.00 0.00 0.00 30 1014.8
20260505181903 65 175 1.0 5.0 0.00 0.00 0.00 31 1014.8
20260505181405 65 143 1.0 5.0 0.00 0.00 0.00 31 1014.8
20260505180903 65 195 1.0 4.0 0.00 0.00 0.00 32 1014.8
20260505180405 65 187 1.0 4.0 0.00 0.00 0.00 32 1014.9
20260505180159 65 189 1.0 4.0 0.00 0.00 0.00 32 1014.9
20260505175405 65 193 1.0 4.0 0.00 0.00 0.00 34 1014.9
20260505174906 64 148 1.0 8.0 0.00 0.00 0.00 33 1014.9
20260505174408 64 154 1.0 8.0 0.00 0.00 0.00 37 1014.9
20260505174210 64 120 1.0 6.0 0.00 0.00 0.00 34 1014.9
20260505173402 64 97 1.0 5.0 0.00 0.00 0.00 34 1015.0
20260505172907 63 77 1.0 5.0 0.00 0.00 0.00 32 1015.0
20260505172401 63 104 1.0 5.0 0.00 0.00 0.00 31 1015.1
20260505171904 63 130 1.0 6.0 0.00 0.00 0.00 32 1015.3
20260505171401 63 115 1.0 6.0 0.00 0.00 0.00 34 1015.3
20260505171207 63 128 1.0 4.0 0.00 0.00 0.00 34 1015.3
20260505170401 62 110 1.0 6.0 0.00 0.00 0.00 34 1015.2
20260505170205 62 176 2.0 8.0 0.00 0.00 0.00 34 1015.3
20260505165707 62 125 2.0 8.0 0.00 0.00 0.00 37 1015.3
20260505165202 62 50 1.0 6.0 0.00 0.00 0.00 38 1015.3
20260505164700 62 106 2.0 5.0 0.00 0.00 0.00 38 1015.3
20260505163904 61 46 2.0 5.0 0.00 0.00 0.00 38 1015.3
20260505163401 61 145 2.0 6.0 0.00 0.00 0.00 37 1015.2
20260505162903 61 51 2.0 6.0 0.00 0.00 0.00 39 1015.2
20260505162401 60 59 2.0 7.0 0.00 0.00 0.00 39 1015.3
20260505161903 60 65 2.0 7.0 0.00 0.00 0.00 38 1015.3
20260505161401 60 52 2.0 7.0 0.00 0.00 0.00 38 1015.2
20260505160900 59 67 1.0 7.0 0.00 0.00 0.00 42 1015.4
20260505160404 58 204 0.0 3.0 0.00 0.00 0.00 51 1015.4
20260505152906 54 182 0.0 3.0 0.00 0.00 0.00 56 1015.5
20260505152659 53 182 0.0 3.0 0.00 0.00 0.00 57 1015.5
20260505151906 53 182 0.0 2.0 0.00 0.00 0.00 57 1015.5
20260505151403 53 182 0.0 0.0 0.00 0.00 0.00 57 1015.5
20260505150904 52 182 0.0 0.0 0.00 0.00 0.00 59 1015.5
20260505150406 51 182 0.0 2.0 0.00 0.00 0.00 60 1015.5
20260505140359 47 182 0.0 0.0 0.00 0.00 0.00 63 1015.2
20260505124846 47 182 0.0 0.0 0.00 0.00 0.00 62 1014.6
20260505124342 47 182 0.0 0.0 0.00 0.00 0.00 62 1014.5
20260505123842 47 182 0.0 0.0 0.00 0.00 0.00 62 1014.5
20260505123341 47 182 0.0 0.0 0.00 0.00 0.00 62 1014.3
20260505123139 47 182 0.0 0.0 0.00 0.00 0.00 60 1014.3
20260505122339 47 182 0.0 0.0 0.00 0.00 0.00 61 1014.3
20260505121835 47 182 0.0 0.0 0.00 0.00 0.00 60 1014.2
20260505121335 47 182 0.0 0.0 0.00 0.00 0.00 61 1014.1
20260505120831 47 182 0.0 0.0 0.00 0.00 0.00 61 1014.1
20260505120331 48 182 0.0 0.0 0.00 0.00 0.00 61 1014.1
20260505115829 48 182 0.0 0.0 0.00 0.00 0.00 61 1014.1
20260505115327 48 182 0.0 0.0 0.00 0.00 0.00 60 1014.0
20260505114826 48 182 0.0 0.0 0.00 0.00 0.00 60 1014.2
20260505114325 48 182 0.0 0.0 0.00 0.00 0.00 61 1014.2
20260505113825 48 182 0.0 0.0 0.00 0.00 0.00 61 1014.1
20260505113623 48 182 0.0 0.0 0.00 0.00 0.00 61 1014.0
20260505112821 48 182 0.0 0.0 0.00 0.00 0.00 60 1014.0
20260505112322 49 182 0.0 0.0 0.00 0.00 0.00 61 1013.9
20260505111822 49 182 0.0 0.0 0.00 0.00 0.00 60 1013.9
20260505111319 49 182 0.0 0.0 0.00 0.00 0.00 59 1013.8
20260505110817 49 182 0.0 0.0 0.00 0.00 0.00 59 1013.9
20260505110315 49 182 0.0 0.0 0.00 0.00 0.00 58 1013.9
20260505101803 51 182 0.0 0.0 0.00 0.00 0.00 54 1013.7
20260505101553 52 182 0.0 0.0 0.00 0.00 0.00 54 1013.7
20260505100805 52 182 0.0 0.0 0.00 0.00 0.00 54 1013.7
20260505100303 52 182 0.0 0.0 0.00 0.00 0.00 54 1013.7
20260505095804 52 182 0.0 0.0 0.00 0.00 0.00 54 1013.7
20260505095305 52 182 0.0 0.0 0.00 0.00 0.00 53 1013.6
20260505094805 53 182 0.0 0.0 0.00 0.00 0.00 53 1013.5
20260505094304 53 182 0.0 0.0 0.00 0.00 0.00 52 1013.6
20260505093805 53 182 0.0 0.0 0.00 0.00 0.00 52 1013.4
20260505093304 53 182 0.0 0.0 0.00 0.00 0.00 51 1013.3
20260505093058 54 182 0.0 0.0 0.00 0.00 0.00 51 1013.4
20260505092307 54 182 0.0 2.0 0.00 0.00 0.00 51 1013.5
20260505091806 55 182 0.0 2.0 0.00 0.00 0.00 50 1013.5
20260505091304 55 182 0.0 4.0 0.00 0.00 0.00 49 1013.5
20260505090805 56 182 0.0 4.0 0.00 0.00 0.00 46 1013.4
20260505090305 56 177 0.0 4.0 0.00 0.00 0.00 44 1013.3
20260505090155 58 259 1.0 10.0 0.00 0.00 0.00 36 1013.2
20260505090150 57 250 1.0 4.0 0.00 0.00 0.00 42 1013.3
20260505084806 58 265 1.0 10.0 0.00 0.00 0.00 36 1013.2
20260505084259 58 287 2.0 7.0 0.00 0.00 0.00 36 1013.2
20260505083800 58 280 2.0 8.0 0.00 0.00 0.00 37 1013.1
20260505083258 58 305 2.0 8.0 0.00 0.00 0.00 37 1013.0
20260505082757 58 258 2.0 8.0 0.00 0.00 0.00 37 1013.0
20260505082258 58 108 1.0 5.0 0.00 0.00 0.00 37 1012.9
20260505081756 58 210 1.0 8.0 0.00 0.00 0.00 36 1013.0
20260505081556 58 249 2.0 9.0 0.00 0.00 0.00 36 1013.0
20260505080757 58 267 2.0 9.0 0.00 0.00 0.00 36 1013.0
20260505080258 58 259 2.0 8.0 0.00 0.00 0.00 36 1013.0
20260505075758 59 207 2.0 8.0 0.00 0.00 0.00 36 1012.6
20260505075256 59 285 2.0 9.0 0.00 0.00 0.00 36 1013.0
20260505075057 59 255 2.0 9.0 0.00 0.00 0.00 36 1012.8
20260505074258 59 267 1.0 7.0 0.00 0.00 0.00 36 1012.5
20260505073757 59 289 1.0 9.0 0.00 0.00 0.00 36 1012.5
20260505073556 59 303 2.0 9.0 0.00 0.00 0.00 37 1012.5
20260505072804 59 273 2.0 8.0 0.00 0.00 0.00 37 1012.4
20260505072551 59 346 1.0 7.0 0.00 0.00 0.00 38 1012.4
20260505072100 59 256 2.0 9.0 0.00 0.00 0.00 37 1012.2
20260505071256 60 201 2.0 9.0 0.00 0.00 0.00 38 1012.1
20260505070756 60 252 2.0 9.0 0.00 0.00 0.00 38 1012.2
20260505070257 60 324 2.0 9.0 0.00 0.00 0.00 38 1012.1
20260505065756 60 64 1.0 8.0 0.00 0.00 0.00 38 1012.1
20260505065256 60 241 1.0 8.0 0.00 0.00 0.00 38 1012.0
20260505064755 60 185 1.0 7.0 0.00 0.00 0.00 38 1011.7
20260505064253 60 299 1.0 6.0 0.00 0.00 0.00 38 1011.9
20260505063754 60 75 1.0 10.0 0.00 0.00 0.00 39 1011.7
20260505063251 60 269 1.0 10.0 0.00 0.00 0.00 38 1011.7
20260505062750 60 160 2.0 7.0 0.00 0.00 0.00 38 1011.7
20260505062250 60 217 2.0 8.0 0.00 0.00 0.00 38 1011.6
20260505062053 61 279 2.0 9.0 0.00 0.00 0.00 38 1011.6
20260505061250 61 289 2.0 11.0 0.00 0.00 0.00 38 1011.6
20260505060750 61 293 2.0 11.0 0.00 0.00 0.00 38 1011.6
20260505060249 61 304 2.0 11.0 0.00 0.00 0.00 38 1011.6
20260505055747 61 280 3.0 11.0 0.00 0.00 0.00 38 1011.4
20260505055244 61 295 2.0 10.0 0.00 0.00 0.00 38 1011.2
20260505054744 62 270 2.0 7.0 0.00 0.00 0.00 38 1011.2
20260505054244 62 168 2.0 8.0 0.00 0.00 0.00 38 1011.3
20260505053744 62 73 2.0 11.0 0.00 0.00 0.00 38 1011.1
20260505053545 62 260 2.0 11.0 0.00 0.00 0.00 38 1010.9
20260505052742 62 168 2.0 10.0 0.00 0.00 0.00 38 1010.7
20260505052555 62 311 2.0 10.0 0.00 0.00 0.00 38 1010.7
20260505051744 62 232 1.0 8.0 0.00 0.00 0.00 38 1010.7
20260505051243 63 252 2.0 8.0 0.00 0.00 0.00 38 1010.7
20260505050742 63 235 2.0 8.0 0.00 0.00 0.00 38 1010.6
20260505050240 63 148 2.0 9.0 0.00 0.00 0.00 38 1010.5
20260505041731 64 245 3.0 11.0 0.00 0.00 0.00 38 1009.9
20260505041232 65 280 3.0 11.0 0.00 0.00 0.00 37 1010.0
20260505041034 65 262 3.0 9.0 0.00 0.00 0.00 37 1009.8
20260505040229 65 298 3.0 9.0 0.00 0.00 0.00 36 1009.6
20260505035730 65 262 3.0 9.0 0.00 0.00 0.00 36 1009.7
20260505035230 66 196 2.0 12.0 0.00 0.00 0.00 36 1009.5
20260505034730 66 67 3.0 12.0 0.00 0.00 0.00 36 1009.1
20260505034232 66 243 3.0 11.0 0.00 0.00 0.00 36 1009.1
20260505033730 66 268 2.0 8.0 0.00 0.00 0.00 36 1009.1
20260505033232 66 101 2.0 10.0 0.00 0.00 0.00 36 1008.9
20260505032731 67 175 2.0 10.0 0.00 0.00 0.00 35 1008.8
20260505032535 67 276 2.0 8.0 0.00 0.00 0.00 35 1008.8
20260505031732 67 249 1.0 7.0 0.00 0.00 0.00 35 1008.7
20260505031230 67 274 1.0 6.0 0.00 0.00 0.00 35 1008.7
20260505030729 68 216 1.0 6.0 0.00 0.00 0.00 35 1008.6
20260505030228 68 322 1.0 5.0 0.00 0.00 0.00 34 1008.6
20260505030028 68 158 0.0 4.0 0.00 0.00 0.00 34 1008.6
20260505025231 68 119 1.0 8.0 0.00 0.00 0.00 33 1008.5
20260505024729 69 326 1.0 8.0 0.00 0.00 0.00 33 1008.5
20260505024536 69 208 1.0 3.0 0.00 0.00 0.00 33 1008.5
20260505023729 70 328 1.0 5.0 0.00 0.00 0.00 32 1008.5
20260505023230 70 291 1.0 6.0 0.00 0.00 0.00 32 1008.5
20260505022730 71 289 1.0 6.0 0.00 0.00 0.00 32 1008.5
20260505022232 71 212 1.0 4.0 0.00 0.00 0.00 31 1008.4
20260505022033 71 299 1.0 4.0 0.00 0.00 0.00 31 1008.4
20260505021231 71 307 1.0 6.0 0.00 0.00 0.00 31 1008.5
20260505020728 72 291 1.0 6.0 0.00 0.00 0.00 30 1008.5
20260505020229 72 278 1.0 4.0 0.00 0.00 0.00 30 1008.7
20260505015729 72 285 0.0 3.0 0.00 0.00 0.00 30 1008.6
20260505015230 73 293 1.0 4.0 0.00 0.00 0.00 30 1008.6
20260505014729 73 293 1.0 5.0 0.00 0.00 0.00 29 1008.6
20260505014229 74 287 1.0 8.0 0.00 0.00 0.00 29 1008.6
20260505014032 74 308 1.0 8.0 0.00 0.00 0.00 29 1008.6
20260505013229 74 64 0.0 4.0 0.00 0.00 0.00 29 1008.6
20260505012733 74 314 0.0 2.0 0.00 0.00 0.00 29 1008.7
20260505012230 75 315 1.0 4.0 0.00 0.00 0.00 27 1008.7
20260505011730 75 312 1.0 4.0 0.00 0.00 0.00 27 1008.8
20260505011229 76 17 1.0 3.0 0.00 0.00 0.00 27 1008.7
20260505010730 76 28 0.0 4.0 0.00 0.00 0.00 27 1008.8
20260505010228 76 41 1.0 6.0 0.00 0.00 0.00 27 1008.7
20260505005729 76 49 1.0 6.0 0.00 0.00 0.00 27 1008.8
20260505005529 75 341 1.0 5.0 0.00 0.00 0.00 27 1008.8
20260505004729 75 69 1.0 5.0 0.00 0.00 0.00 27 1008.8
20260505004230 76 8 1.0 2.0 0.00 0.00 0.00 27 1008.9
20260505003730 77 9 1.0 3.0 0.00 0.00 0.00 26 1008.8
20260505003229 77 13 1.0 4.0 0.00 0.00 0.00 25 1008.9
20260505002730 77 316 1.0 4.0 0.00 0.00 0.00 26 1008.8
20260505002229 77 88 1.0 4.0 0.00 0.00 0.00 26 1008.9
20260505001731 77 87 1.0 5.0 0.00 0.00 0.00 28 1008.8
20260505001230 77 79 1.0 8.0 0.00 0.00 0.00 26 1008.8
20260505001026 77 278 1.0 8.0 0.00 0.00 0.00 27 1008.8
20260505000228 77 295 1.0 8.0 0.00 0.00 0.00 27 1008.9
20260504235733 76 67 1.0 5.0 0.00 0.00 0.00 26 1009.0
20260504235234 76 62 2.0 5.0 0.00 0.00 0.00 27 1009.1
20260504234733 77 73 1.0 6.0 0.00 0.00 0.00 27 1009.0
20260504234234 76 90 2.0 8.0 0.00 0.00 0.00 27 1009.1
20260504233732 76 94 2.0 8.0 0.00 0.00 0.00 27 1009.1
20260504233231 76 56 1.0 4.0 0.00 0.00 0.00 26 1009.0
20260504232734 77 50 1.0 7.0 0.00 0.00 0.00 26 1009.1
20260504232234 77 51 2.0 7.0 0.00 0.00 0.00 28 1009.4
20260504231731 76 64 2.0 7.0 0.00 0.00 0.00 27 1009.4
20260504231232 76 63 1.0 7.0 0.00 0.00 0.00 27 1009.4
20260504230732 76 132 1.0 4.0 0.00 0.00 0.00 27 1009.4
20260504230339 76 143 1.0 7.0 0.00 0.00 0.00 27 1009.5
20260504230315 76 135 1.0 7.0 0.00 0.00 0.00 26 1009.4
20260504225235 76 77 1.0 8.0 0.00 0.00 0.00 29 1009.5
20260504224735 76 74 1.0 8.0 0.00 0.00 0.00 28 1009.6
20260504224233 76 56 1.0 4.0 0.00 0.00 0.00 26 1009.6
20260504223735 77 50 1.0 9.0 0.00 0.00 0.00 26 1009.6
20260504223231 77 278 1.0 9.0 0.00 0.00 0.00 27 1009.7
20260504222733 77 303 1.0 4.0 0.00 0.00 0.00 26 1009.8
20260504222234 76 9 1.0 4.0 0.00 0.00 0.00 29 1009.8
20260504222022 76 62 1.0 4.0 0.00 0.00 0.00 28 1009.8
20260504221232 76 62 1.0 5.0 0.00 0.00 0.00 26 1009.8
20260504221028 76 63 1.0 7.0 0.00 0.00 0.00 28 1009.8
20260504220231 76 318 1.0 7.0 0.00 0.00 0.00 27 1009.9
20260504215734 77 48 1.0 7.0 0.00 0.00 0.00 27 1009.9
20260504215234 76 303 2.0 11.0 0.00 0.00 0.00 28 1010.0
20260504214733 75 48 2.0 11.0 0.00 0.00 0.00 30 1010.0
20260504214525 75 68 2.0 10.0 0.00 0.00 0.00 29 1009.9
20260504214038 75 70 1.0 5.0 0.00 0.00 0.00 28 1010.0